| time (UTC) | temp F | wind direction | speed knots | gust knots | rain 1hr in | rain 24hr in | rain mn in | humidity % | barometer mb |
| 20260507015310 | 80 | 277 | 0.0 | 2.6 | 0.00 | 0.00 | 0.00 | 20 | |
| 20260507014309 | 81 | 36 | 1.7 | 5.2 | 0.00 | 0.00 | 0.00 | 19 | |
| 20260507013309 | 81 | 240 | 3.5 | 8.7 | 0.00 | 0.00 | 0.00 | 19 | |
| 20260507012308 | 82 | 285 | 2.6 | 6.1 | 0.00 | 0.00 | 0.00 | 18 | |
| 20260507011308 | 82 | 310 | 3.5 | 8.7 | 0.00 | 0.00 | 0.00 | 19 | |
| 20260507010303 | 83 | 286 | 8.7 | 13.0 | 0.00 | 0.00 | 0.00 | 18 | |
| 20260507005305 | 84 | 175 | 7.8 | 11.3 | 0.00 | 0.00 | 0.00 | 17 | |
| 20260507004303 | 85 | 272 | 6.1 | 8.7 | 0.00 | 0.00 | 0.00 | 17 | |
| 20260507003301 | 85 | 273 | 9.6 | 13.9 | 0.00 | 0.00 | 0.00 | 16 | |
| 20260507002259 | 86 | 273 | 6.1 | 11.3 | 0.00 | 0.00 | 0.00 | 17 | |
| 20260507001254 | 86 | 253 | 1.7 | 9.6 | 0.00 | 0.00 | 0.00 | 16 | |
| 20260507000251 | 86 | 300 | 4.3 | 11.3 | 0.00 | 0.00 | 0.00 | 16 | |
| 20260506235250 | 87 | 262 | 2.6 | 7.0 | 0.00 | 0.00 | 0.00 | 15 | |
| 20260506234244 | 88 | 327 | 7.0 | 8.7 | 0.00 | 0.00 | 0.00 | 15 | |
| 20260506233244 | 87 | 230 | 4.3 | 13.9 | 0.00 | 0.00 | 0.00 | 15 | |
| 20260506232241 | 88 | 185 | 0.9 | 6.1 | 0.00 | 0.00 | 0.00 | 15 | |
| 20260506231237 | 89 | 276 | 3.5 | 7.8 | 0.00 | 0.00 | 0.00 | 15 | |
| 20260506230236 | 89 | 267 | 5.2 | 13.0 | 0.00 | 0.00 | 0.00 | 15 | |
| 20260506225236 | 89 | 277 | 7.8 | 11.3 | 0.00 | 0.00 | 0.00 | 15 | |
| 20260506224236 | 89 | 258 | 7.0 | 14.8 | 0.00 | 0.00 | 0.00 | 14 | |
| 20260506223233 | 89 | 128 | 2.6 | 9.6 | 0.00 | 0.00 | 0.00 | 15 | |
| 20260506222232 | 89 | 211 | 5.2 | 12.2 | 0.00 | 0.00 | 0.00 | 15 | |
| 20260506221228 | 89 | 249 | 2.6 | 8.7 | 0.00 | 0.00 | 0.00 | 15 | |
| 20260506220225 | 90 | 71 | 5.2 | 13.0 | 0.00 | 0.00 | 0.00 | 15 | |
| 20260506215224 | 91 | 264 | 7.0 | 13.0 | 0.00 | 0.00 | 0.00 | 15 | |
| 20260506214224 | 89 | 284 | 7.0 | 8.7 | 0.00 | 0.00 | 0.00 | 15 | |
| 20260506213219 | 89 | 208 | 6.1 | 11.3 | 0.00 | 0.00 | 0.00 | 15 | |
| 20260506212217 | 90 | 215 | 4.3 | 12.2 | 0.00 | 0.00 | 0.00 | 15 | |
| 20260506211216 | 89 | 166 | 1.7 | 7.8 | 0.00 | 0.00 | 0.00 | 15 | |
| 20260506210215 | 89 | 185 | 7.0 | 15.6 | 0.00 | 0.00 | 0.00 | 15 | |
| 20260506205213 | 88 | 248 | 3.5 | 9.6 | 0.00 | 0.00 | 0.00 | 15 | |
| 20260506204208 | 89 | 274 | 4.3 | 12.2 | 0.00 | 0.00 | 0.00 | 14 | |
| 20260506203203 | 88 | 266 | 6.1 | 9.6 | 0.00 | 0.00 | 0.00 | 15 | |
| 20260506202202 | 88 | 227 | 3.5 | 6.1 | 0.00 | 0.00 | 0.00 | 14 | |
| 20260506201202 | 89 | 251 | 4.3 | 7.8 | 0.00 | 0.00 | 0.00 | 14 | |
| 20260506200202 | 88 | 155 | 0.9 | 7.8 | 0.00 | 0.00 | 0.00 | 14 | |
| 20260506195200 | 88 | 291 | 11.3 | 14.8 | 0.00 | 0.00 | 0.00 | 15 | |
| 20260506194200 | 89 | 195 | 6.1 | 9.6 | 0.00 | 0.00 | 0.00 | 15 | |
| 20260506193200 | 88 | 154 | 2.6 | 9.6 | 0.00 | 0.00 | 0.00 | 16 | |
| 20260506192200 | 87 | 178 | 0.9 | 7.8 | 0.00 | 0.00 | 0.00 | 16 | |
| 20260506191158 | 88 | 209 | 7.0 | 13.0 | 0.00 | 0.00 | 0.00 | 16 | |
| 20260506190158 | 87 | 182 | 4.3 | 6.1 | 0.00 | 0.00 | 0.00 | 15 | |
| 20260506185157 | 86 | 206 | 5.2 | 7.0 | 0.00 | 0.00 | 0.00 | 15 | |
| 20260506184152 | 87 | 222 | 5.2 | 8.7 | 0.00 | 0.00 | 0.00 | 16 | |
| 20260506183151 | 87 | 220 | 9.6 | 11.3 | 0.00 | 0.00 | 0.00 | 14 | |
| 20260506182151 | 86 | 242 | 8.7 | 11.3 | 0.00 | 0.00 | 0.00 | 13 | |
| 20260506181146 | 87 | 253 | 5.2 | 8.7 | 0.00 | 0.00 | 0.00 | 13 | |
| 20260506180145 | 85 | 228 | 3.5 | 8.7 | 0.00 | 0.00 | 0.00 | 13 | |
| 20260506175144 | 86 | 213 | 0.9 | 9.6 | 0.00 | 0.00 | 0.00 | 13 | |
| 20260506174139 | 84 | 246 | 2.6 | 7.8 | 0.00 | 0.00 | 0.00 | 12 | |
| 20260506173139 | 84 | 255 | 3.5 | 6.1 | 0.00 | 0.00 | 0.00 | 12 | |
| 20260506172138 | 84 | 12 | 2.6 | 11.3 | 0.00 | 0.00 | 0.00 | 11 | |
| 20260506171134 | 84 | 272 | 5.2 | 9.6 | 0.00 | 0.00 | 0.00 | 11 | |
| 20260506170128 | 82 | 72 | 0.0 | 1.7 | 0.00 | 0.00 | 0.00 | 13 | |
| 20260506165127 | 82 | 63 | 0.0 | 3.5 | 0.00 | 0.00 | 0.00 | 13 | |
| 20260506164127 | 81 | 111 | 0.0 | 2.6 | 0.00 | 0.00 | 0.00 | 14 | |
| 20260506163123 | 80 | 89 | 0.0 | 0.0 | 0.00 | 0.00 | 0.00 | 14 | |
| 20260506162122 | 80 | 169 | 7.0 | 7.0 | 0.00 | 0.00 | 0.00 | 15 | |
| 20260506161121 | 80 | 220 | 0.9 | 3.5 | 0.00 | 0.00 | 0.00 | 15 | |
| 20260506160121 | 79 | 133 | 0.0 | 0.9 | 0.00 | 0.00 | 0.00 | 16 | |
| 20260506155116 | 77 | 163 | 0.9 | 5.2 | 0.00 | 0.00 | 0.00 | 18 | |
| 20260506152726 | 76 | 108 | 0.0 | 0.9 | 0.00 | 0.00 | 0.00 | 20 | |
| 20260506151723 | 74 | 73 | 0.0 | 0.0 | 0.00 | 0.00 | 0.00 | 23 | |
| 20260506150721 | 76 | 79 | 0.0 | 0.0 | 0.00 | 0.00 | 0.00 | 24 | |
| 20260506145716 | 74 | 76 | 0.0 | 0.0 | 0.00 | 0.00 | 0.00 | 25 | |
| 20260506144715 | 73 | 99 | 0.0 | 0.0 | 0.00 | 0.00 | 0.00 | 24 | |
| 20260506143710 | 69 | 76 | 0.0 | 0.0 | 0.00 | 0.00 | 0.00 | 26 | |
| 20260506142706 | 67 | 72 | 0.0 | 0.0 | 0.00 | 0.00 | 0.00 | 27 | |
| 20260506141701 | 65 | 72 | 0.0 | 0.0 | 0.00 | 0.00 | 0.00 | 30 | |
| 20260506140656 | 63 | 75 | 0.0 | 0.0 | 0.00 | 0.00 | 0.00 | 32 | |
| 20260506135656 | 63 | 71 | 0.0 | 0.0 | 0.00 | 0.00 | 0.00 | 31 | |
| 20260506134655 | 62 | 76 | 0.0 | 0.0 | 0.00 | 0.00 | 0.00 | 31 | |
| 20260506133654 | 59 | 76 | 0.0 | 0.0 | 0.00 | 0.00 | 0.00 | 33 | |
| 20260506132654 | 59 | 72 | 0.0 | 0.0 | 0.00 | 0.00 | 0.00 | 33 | |
| 20260506131649 | 56 | 66 | 0.0 | 0.0 | 0.00 | 0.00 | 0.00 | 35 | |
| 20260506130647 | 55 | 63 | 0.0 | 0.0 | 0.00 | 0.00 | 0.00 | 36 | |
| 20260506125643 | 53 | 47 | 0.0 | 0.0 | 0.00 | 0.00 | 0.00 | 37 | |
| 20260506124638 | 51 | 44 | 0.0 | 0.0 | 0.00 | 0.00 | 0.00 | 39 | |
| 20260506123633 | 51 | 34 | 0.0 | 0.0 | 0.00 | 0.00 | 0.00 | 41 | |
| 20260506122628 | 51 | 64 | 0.0 | 0.0 | 0.00 | 0.00 | 0.00 | 43 | |
| 20260506121623 | 52 | 68 | 0.0 | 0.0 | 0.00 | 0.00 | 0.00 | 42 | |
| 20260506120623 | 52 | 62 | 0.0 | 0.0 | 0.00 | 0.00 | 0.00 | 42 | |
| 20260506115619 | 53 | 73 | 0.0 | 0.0 | 0.00 | 0.00 | 0.00 | 41 | |
| 20260506114614 | 53 | 31 | 0.0 | 0.9 | 0.00 | 0.00 | 0.00 | 39 | |
| 20260506113609 | 53 | 22 | 0.0 | 0.9 | 0.00 | 0.00 | 0.00 | 39 | |
| 20260506112609 | 53 | 57 | 0.0 | 0.0 | 0.00 | 0.00 | 0.00 | 39 | |
| 20260506111604 | 53 | 62 | 0.0 | 0.0 | 0.00 | 0.00 | 0.00 | 39 | |
| 20260506110559 | 54 | 65 | 0.0 | 0.0 | 0.00 | 0.00 | 0.00 | 39 | |
| 20260506105558 | 55 | 56 | 0.0 | 0.0 | 0.00 | 0.00 | 0.00 | 37 | |
| 20260506104553 | 55 | 40 | 0.0 | 0.0 | 0.00 | 0.00 | 0.00 | 37 | |
| 20260506103548 | 55 | 35 | 0.0 | 0.0 | 0.00 | 0.00 | 0.00 | 37 | |
| 20260506102543 | 55 | 41 | 0.0 | 0.0 | 0.00 | 0.00 | 0.00 | 37 | |
| 20260506101542 | 55 | 31 | 0.0 | 0.9 | 0.00 | 0.00 | 0.00 | 37 | |
| 20260506100537 | 55 | 58 | 0.0 | 0.0 | 0.00 | 0.00 | 0.00 | 37 | |
| 20260506095534 | 56 | 52 | 0.0 | 0.0 | 0.00 | 0.00 | 0.00 | 35 | |
| 20260506094533 | 57 | 56 | 0.0 | 0.0 | 0.00 | 0.00 | 0.00 | 35 | |
| 20260506093529 | 56 | 39 | 0.0 | 0.0 | 0.00 | 0.00 | 0.00 | 35 | |
| 20260506092524 | 57 | 56 | 0.0 | 0.0 | 0.00 | 0.00 | 0.00 | 35 | |
| 20260506091519 | 57 | 65 | 0.0 | 0.0 | 0.00 | 0.00 | 0.00 | 35 | |
| 20260506090514 | 57 | 17 | 0.0 | 0.9 | 0.00 | 0.00 | 0.00 | 35 | |
| 20260506085512 | 57 | 48 | 0.0 | 0.0 | 0.00 | 0.00 | 0.00 | 34 | |
| 20260506084512 | 58 | 51 | 0.0 | 0.0 | 0.00 | 0.00 | 0.00 | 34 | |
| 20260506083511 | 58 | 41 | 0.0 | 0.0 | 0.00 | 0.00 | 0.00 | 34 | |
| 20260506082511 | 59 | 63 | 0.0 | 0.0 | 0.00 | 0.00 | 0.00 | 34 | |
| 20260506081511 | 59 | 57 | 0.0 | 0.0 | 0.00 | 0.00 | 0.00 | 33 | |
| 20260506080511 | 60 | 63 | 0.0 | 0.0 | 0.00 | 0.00 | 0.00 | 32 | |
| 20260506073500 | 62 | 57 | 0.0 | 0.0 | 0.00 | 0.00 | 0.00 | 32 | |
| 20260506072500 | 63 | 66 | 0.0 | 0.0 | 0.00 | 0.00 | 0.00 | 31 | |
| 20260506071456 | 63 | 59 | 0.0 | 0.0 | 0.00 | 0.00 | 0.00 | 31 | |
| 20260506070456 | 63 | 60 | 0.0 | 0.0 | 0.00 | 0.00 | 0.00 | 31 | |
| 20260506062445 | 65 | 60 | 0.0 | 0.0 | 0.00 | 0.00 | 0.00 | 31 | |
| 20260506061443 | 65 | 76 | 0.0 | 0.0 | 0.00 | 0.00 | 0.00 | 30 | |
| 20260506060440 | 67 | 75 | 0.0 | 0.0 | 0.00 | 0.00 | 0.00 | 29 | |
| 20260506050429 | 69 | 76 | 0.0 | 0.0 | 0.00 | 0.00 | 0.00 | 26 | |
| 20260506044423 | 71 | 88 | 0.0 | 0.0 | 0.00 | 0.00 | 0.00 | 25 | |
| 20260506043423 | 71 | 79 | 0.0 | 0.0 | 0.00 | 0.00 | 0.00 | 25 | |
| 20260506042420 | 71 | 80 | 0.0 | 0.0 | 0.00 | 0.00 | 0.00 | 24 | |
| 20260506041420 | 71 | 109 | 0.0 | 1.7 | 0.00 | 0.00 | 0.00 | 23 | |
| 20260506040420 | 71 | 91 | 0.0 | 0.0 | 0.00 | 0.00 | 0.00 | 22 | |
| 20260506035420 | 72 | 78 | 0.0 | 0.0 | 0.00 | 0.00 | 0.00 | 20 | |
| 20260506034419 | 72 | 89 | 0.0 | 0.0 | 0.00 | 0.00 | 0.00 | 20 | |
| 20260506033414 | 72 | 78 | 0.0 | 0.0 | 0.00 | 0.00 | 0.00 | 20 | |
| 20260506032413 | 73 | 86 | 0.0 | 0.9 | 0.00 | 0.00 | 0.00 | 19 | |
| 20260506031413 | 73 | 81 | 0.0 | 0.9 | 0.00 | 0.00 | 0.00 | 19 | |
| 20260506030408 | 75 | 81 | 0.0 | 0.0 | 0.00 | 0.00 | 0.00 | 18 | |
| 20260506025408 | 76 | 192 | 0.9 | 3.5 | 0.00 | 0.00 | 0.00 | 17 | |
| 20260506024408 | 77 | 224 | 0.9 | 3.5 | 0.00 | 0.00 | 0.00 | 16 | |
| 20260506023406 | 77 | 180 | 0.0 | 0.9 | 0.00 | 0.00 | 0.00 | 15 | |
| 20260506022406 | 76 | 10 | 0.0 | 0.9 | 0.00 | 0.00 | 0.00 | 14 | |
| 20260506021401 | 77 | 51 | 0.9 | 1.7 | 0.00 | 0.00 | 0.00 | 14 | |
| 20260506020356 | 78 | 18 | 0.0 | 0.0 | 0.00 | 0.00 | 0.00 | 14 |